Regional Weather Roundup
Issued by NWS Green Bay, WI

Home | Current Version | Previous Version | Graphics & Text | Print | Product List | Glossary Off
Versions: 1 2 3 4 5 6 7 8 9 10 11 12 13 14 15 16 17 18 19 20 21 22 23 24 25 26 27 28 29 30 31 32 33 34 35 36 37 38 39 40 41 42 43 44 45 46 47 48 49 50

000
ASUS43 KGRB 282000
RWRGRB

NORTH-CENTRAL AND NORTHEAST WISCONSIN REGIONAL WEATHER ROUNDUP
NATIONAL WEATHER SERVICE GREEN BAY WI
300 PM CDT SUN AUG 28 2016

WIZ005-009-010>012-018-019-282100-
NORTH CENTRAL WISCONSIN

CITY           SKY/WX    TMP DP  RH WIND       PRES   REMARKS
IRONWOOD       SUNNY     75  60  59 VRB3      30.19F
MANITOWISH WTR NOT AVBL
ARBOR VITAE    NOT AVBL
EAGLE RIVER    NOT AVBL
LAND O LAKES   NOT AVBL
RHINELANDER    MOSUNNY   78  61  55 VRB3      30.22S
PHILLIPS       PTSUNNY   75  63  67 SW3       30.20F
ANTIGO         NOT AVBL
TOMAHAWK       NOT AVBL
MERRILL        MOSUNNY   75  63  66 SW5       30.21F
$$

WIZ013-073-282100-
NORTHEAST WISCONSIN

CITY           SKY/WX    TMP DP  RH WIND       PRES   REMARKS
IRON MOUNTAIN  CLOUDY    80  55  42 NW3       30.18F
MARINETTE      SUNNY    N/A N/A N/A S8        30.19F
$$

WIZ017-030-035>037-045-282100-
CENTRAL WISCONSIN

CITY           SKY/WX    TMP DP  RH WIND       PRES   REMARKS
MEDFORD        NOT AVBL
WAUSAU         SUNNY     75  61  61 S6        30.19F
MOSINEE        MOSUNNY   75  64  69 SW3       30.22
MARSHFIELD     MOSUNNY   79  64  60 S5        30.19F
WISC RAPIDS    SUNNY     78  63  59 CALM      30.20F
STEVENS POINT  NOT AVBL
WAUPACA        NOT AVBL
SHAWANO        NOT AVBL
CLINTONVILLE   MOSUNNY   79  61  53 S3        30.19F
WAUTOMA        MOSUNNY   80  65  59 S6        30.19F
$$

WIZ038-039-048-051-282100-
FOX VALLEY

CITY           SKY/WX    TMP DP  RH WIND       PRES   REMARKS
NWS GREEN BAY  MOSUNNY   78  65  63 W5        30.18F
APPLETON       MOSUNNY   77  61  57 VRB5      30.18F
OSHKOSH        SUNNY     76  64  66 NE6       30.19F
FOND DU LAC    SUNNY     79  65  62 VRB3      30.19F
$$

WIZ022-050-052-282100-
EAST CENTRAL WISCONSIN

CITY           SKY/WX    TMP DP  RH WIND       PRES   REMARKS
EPHRAIM        NOT AVBL
WASHINGTON ISL NOT AVBL
STURGEON BAY   MOSUNNY   76  63  64 NW7       30.20F
MANITOWOC      NOT AVBL
SHEBOYGAN      SUNNY     76  66  71 SE6       30.19F
$$

LMZ563-521-522-541>543-282100-
LAKESHORE

STATION/POSITION TIME  TEMP    WIND        PRES    VSBY  WAVE
                       AIR SEA DIR/SP/G                  HT/PER
                 (UTC) (F)     (DEG/KT/KT) (MB)    (MI)  (FT/S)
SHEBOYGAN LKSHOR 1900   66     160/  9/  9 1022.5F
KEWAUNEE LKSHORE 1900   66     180/  5/  6 1022.6F
NORTHPORT PIER   1900   73     120/  4/  5 1022.4F
N MID LAKE BUOY  1850   69 71  230/  4/  6 1022.6R         1/ 3
CHAMBERS ISLAND  1940   73     170/  6/ 10 1022.0F
MENOMINEE LKSHOR 1900   71     160/  9/ 12 1021.9F
$$




USA.gov is the U.S. government's official web portal to all federal, state and local government web resources and services.